Preview of NWS' New Version of Forecast
This preview is not operational and should not be used for support decisions.

Regional Weather Roundup (RWR)

Issued by National Weather Service (NWS)

                            
000
ASUS44 KJAN 150110
RWRMS 

MISSISSIPPI HOURLY WEATHER ROUNDUP
NATIONAL WEATHER SERVICE JACKSON MS
800 PM CDT SAT SEP 14 2019

NOTE: "FAIR: INDICATES FEW OR NO CLOUDS BELOW 12,000 FEET WITH NO
SIGNIFICANT WEATHER AND/OR OBSTRUCTIONS TO VISIBILITY.

MSZ001>002-007>008-010>013-018>021-025>028-034>036-150200-
NORTHWEST MISSISSIPPI
  
CITY           SKY/WX    TMP DP  RH WIND       PRES   REMARKS
BATESVILLE     FAIR      81  75  83 CALM      30.10R                  
CLARKSDALE       N/A     86  72  62 NE5       30.09S HX  92           
CLEVELAND      FAIR      86  70  58 E6        30.08R HX  90           
GREENWOOD      FAIR      81  74  79 NE5       30.09R                  
GREENVILLE     FAIR      84  69  60 E7        30.07R                  
OLIVE BRANCH   PTCLDY    82  66  57 N5        30.11S                  
OXFORD         FAIR      81  70  69 CALM      30.13S                  
TUNICA           N/A     79  68  69 N5        30.11S                  
WINONA         FAIR      79  74  85 CALM      30.11R                  
$$

MSZ003>006-009-014>017-022>024-029>033-037>039-150200-
NORTHEAST MISSISSIPPI
  
CITY           SKY/WX    TMP DP  RH WIND       PRES   REMARKS
ABERDEEN       FAIR      77  59  53 CALM      30.12R                  
COLUMBUS AFB   NOT AVBL                                               
CORINTH        FAIR      79  75  89 CALM      30.13R                  
GOLDN TRIANGLE FAIR      83  75  77 N3        30.11R HX  90           
STARKVILLE       N/A     79  72  78 CALM      30.11S                  
TUPELO         FAIR      84  70  62 CALM      30.11S                  
$$

MSZ040-058-150200-
CENTRAL MISSISSIPPI
  
CITY           SKY/WX    TMP DP  RH WIND       PRES   REMARKS
JACKSON INTL   FAIR      83  67  58 NE5       30.07S                  
JACKSON HAWKNS FAIR      86  66  51 NE3       30.08S                  
MADISON        FAIR      81  68  65 CALM      30.09S                  
MERIDIAN KEY   FAIR      84  70  62 N3        30.08S                  
MERIDIAN NAS   FAIR      85  69  58 NE3       30.09S THUNDER          
RAYMOND          N/A     79  73  83 CALM      30.07S                  
VICKSBURG VKS  CLEAR     82  73  74 CALM      30.06S                  
$$

MSZ059>079-150200-
SOUTH MISSISSIPPI
  
CITY           SKY/WX    TMP DP  RH WIND       PRES   REMARKS
BROOKHAVEN     FAIR      77  68  73 CALM      30.09S                  
HATTIESBURG    FAIR      81  70  69 CALM      30.06S                  
LAUREL         CLEAR     82  71  68 CALM      30.07S                  
MCCOMB         FAIR      83  70  64 CALM      30.07S                  
NATCHEZ        FAIR      84  66  54 E5        30.07R                  
PINE BELT      FAIR      78  72  81 CALM      30.08R                  
$$

MSZ080>082-150200-
COASTAL MISSISSIPPI
  
CITY           SKY/WX    TMP DP  RH WIND       PRES   REMARKS
BAY ST LOUIS   CLEAR     79  75  89 CALM      30.03S                  
BILOXI         NOT AVBL                                               
PASCAGOULA     FAIR      79  73  82 CALM      30.04R                  
GULFPORT       FAIR      83  72  69 CALM      30.02S                  
$$

LAZ007>009-015>016-023>026-150200-
NORTHEAST LOUISIANA
  
CITY           SKY/WX    TMP DP  RH WIND       PRES   REMARKS
BASTROP        FAIR      80  71  73 CALM      30.07R                  
TALLULAH/VBURG FAIR      87  68  52 E5        30.06R HX  90           
VIDALIA        FAIR      86  64  47 NE5       30.04S                  
$$